This is the latest recevied weather packets stored in our database for station/object EA7OC-10. If no packets are shown the sender has not sent any weather packets the latest 10 day(s).
| Time | Temp. | Humidity | Pressure | Rain* | Wind** | Luminosity | Snow |
|---|---|---|---|---|---|---|---|
| 1788450775 | 52.22° C | 21% | 1018.5 hPa | - | - | - | - |
| 1788449875 | 52.22° C | 21% | 1018.6 hPa | - | - | - | - |
| 1788448975 | 51.67° C | 21% | 1018.6 hPa | - | - | - | - |
| 1788447208 | 51.11° C | 21% | 1018.9 hPa | - | - | - | - |
| 1788446308 | 51.11° C | 22% | 1019 hPa | - | - | - | - |
| 1788445403 | 50.56° C | 21% | 1019.1 hPa | - | - | - | - |
| 1788444503 | 50.56° C | 22% | 1019.2 hPa | - | - | - | - |
| 1788443603 | 50.56° C | 21% | 1019.3 hPa | - | - | - | - |
| 1788442703 | 50° C | 21% | 1019.5 hPa | - | - | - | - |
| 1788441803 | 48.89° C | 22% | 1019.7 hPa | - | - | - | - |
| 1788440903 | 48.33° C | 22% | 1019.8 hPa | - | - | - | - |
| 1788440003 | 47.78° C | 22% | 1019.9 hPa | - | - | - | - |
| 1788439103 | 47.22° C | 22% | 1020 hPa | - | - | - | - |
| 1788438202 | 46.67° C | 22% | 1020.2 hPa | - | - | - | - |
| 1788437302 | 46.11° C | 22% | 1020.3 hPa | - | - | - | - |
| 1788436402 | 46.11° C | 22% | 1020.6 hPa | - | - | - | - |
| 1788435498 | 45.56° C | 22% | 1020.9 hPa | - | - | - | - |
| 1788434597 | 45° C | 23% | 1021 hPa | - | - | - | - |
| 1788433697 | 44.44° C | 23% | 1021.3 hPa | - | - | - | - |
| 1788432795 | 43.33° C | 23% | 1021.4 hPa | - | - | - | - |
| 1788431895 | 41.67° C | 24% | 1021.6 hPa | - | - | - | - |
| 1788430991 | 40.56° C | 23% | 1021.7 hPa | - | - | - | - |
| 1788430086 | 41.11° C | 22% | 1021.7 hPa | - | - | - | - |
| 1788429184 | 41.67° C | 24% | 1021.7 hPa | - | - | - | - |
| 1788428284 | 41.11° C | 23% | 1021.7 hPa | - | - | - | - |
* Rain since midnight (hover to see other rain measurements)
** Current wind speed in m/s (hover to see current wind gust speed)